This is the latest recevied weather packets stored in our database for station/object N4CRH-13. If no packets are shown the sender has not sent any weather packets the latest 10 day(s).
| Time | Temp. | Humidity | Pressure | Rain* | Wind** | Luminosity | Snow |
|---|---|---|---|---|---|---|---|
| 1777873013 | 7.78° C | 49% | 1291.7 hPa | 0 mm | - | 0 W/m² | - |
| 1777872710 | 7.78° C | 49% | 1291.5 hPa | 0 mm | - | 0 W/m² | - |
| 1777872407 | 7.78° C | 50% | 1291.8 hPa | 0 mm | - | 0 W/m² | - |
| 1777872105 | 7.78° C | 49% | 1291.8 hPa | 0 mm | - | 0 W/m² | - |
| 1777871802 | 8.33° C | 46% | 1292 hPa | 0 mm | - | 0 W/m² | - |
| 1777871498 | 7.78° C | 46% | 1291.9 hPa | 0 mm | - | 0 W/m² | - |
| 1777871195 | 7.78° C | 47% | 1291.9 hPa | 0 mm | - | 0 W/m² | - |
| 1777870892 | 7.78° C | 51% | 1291.9 hPa | 0 mm | - | 0 W/m² | - |
| 1777870589 | 7.78° C | 53% | 1291.8 hPa | 0 mm | - | 0 W/m² | - |
| 1777870284 | 7.78° C | 55% | 1291.8 hPa | 0 mm | - | 0 W/m² | - |
| 1777869982 | 7.78° C | 56% | 1291.9 hPa | 0 mm | - | 0 W/m² | - |
| 1777869678 | 7.78° C | 54% | 1292.2 hPa | 0 mm | - | 0 W/m² | - |
| 1777869376 | 7.78° C | 54% | 1292.2 hPa | 0 mm | - | 0 W/m² | - |
| 1777869073 | 7.78° C | 52% | 1292.2 hPa | 0 mm | - | 0 W/m² | - |
| 1777868770 | 7.78° C | 55% | 1292.4 hPa | 0 mm | - | 0 W/m² | - |
| 1777868467 | 7.78° C | 51% | 1292.5 hPa | 0 mm | - | 0 W/m² | - |
| 1777868162 | 7.78° C | 54% | 1292.5 hPa | 0 mm | - | 0 W/m² | - |
| 1777867859 | 8.89° C | 56% | 1292.4 hPa | 0 mm | - | 0 W/m² | - |
| 1777867556 | 8.89° C | 43% | 1292.4 hPa | 0 mm | - | 0 W/m² | - |
| 1777867253 | 8.33° C | 48% | 1292.6 hPa | 0 mm | - | 0 W/m² | - |
| 1777866950 | 8.33° C | 53% | 1292.6 hPa | 0 mm | - | 0 W/m² | - |
| 1777866646 | 9.44° C | 52% | 1292.8 hPa | 0 mm | - | 0 W/m² | - |
| 1777866344 | 9.44° C | 44% | 1292.6 hPa | 0 mm | - | 0 W/m² | - |
| 1777866041 | 9.44° C | 44% | 1292.3 hPa | 0 mm | - | 0 W/m² | - |
| 1777865739 | 9.44° C | 45% | 1292.4 hPa | 0 mm | - | 0 W/m² | - |
* Rain latest hour (hover to see other rain measurements)
** Current wind speed in m/s (hover to see current wind gust speed)